| time (UTC) | temp C | wind direction | speed KPH | gust KPH | rain 1hr cm | rain 24hr cm | rain mn cm | humidity % | barometer mb |
| 20260504081841 | 10 | 294 | 0.0 | 0.0 | 0.00 | 0.00 | 0.00 | 99 | 1019.3 |
| 20260504081338 | 10 | 294 | 0.0 | 0.0 | 0.00 | 0.00 | 0.00 | 99 | 1019.4 |
| 20260504080833 | 10 | 294 | 0.0 | 0.0 | 0.00 | 0.00 | 0.00 | 99 | 1019.1 |
| 20260504080331 | 10 | 294 | 0.0 | 0.0 | 0.00 | 0.00 | 0.00 | 99 | 1019.3 |
| 20260504070258 | 10 | 284 | 0.0 | 0.0 | 0.00 | 0.00 | 0.00 | 99 | 1019.6 |
| 20260504060219 | 11 | 286 | 0.0 | 0.0 | 0.00 | 0.00 | 0.00 | 98 | 1020.3 |
| 20260504050646 | 11 | 301 | 0.0 | 0.0 | 0.00 | 0.00 | 0.00 | 98 | 1020.3 |
| 20260504050143 | 11 | 301 | 0.0 | 0.0 | 0.00 | 0.00 | 0.00 | 98 | 1020.5 |
| 20260504045641 | 11 | 301 | 0.0 | 0.0 | 0.00 | 0.00 | 0.00 | 97 | 1020.4 |
| 20260504045140 | 11 | 301 | 0.0 | 0.0 | 0.00 | 0.00 | 0.00 | 97 | 1020.4 |
| 20260504044638 | 11 | 301 | 0.0 | 0.0 | 0.00 | 0.00 | 0.00 | 97 | 1020.4 |
| 20260504044135 | 11 | 301 | 0.0 | 0.0 | 0.00 | 0.00 | 0.00 | 97 | 1020.5 |
| 20260504043632 | 11 | 301 | 0.0 | 0.0 | 0.00 | 0.00 | 0.00 | 97 | 1020.4 |
| 20260504043129 | 11 | 301 | 0.0 | 0.0 | 0.00 | 0.00 | 0.00 | 96 | 1020.8 |
| 20260504042626 | 12 | 301 | 0.0 | 0.0 | 0.00 | 0.00 | 0.00 | 96 | 1020.5 |
| 20260504042123 | 12 | 301 | 0.0 | 0.0 | 0.00 | 0.00 | 0.00 | 96 | 1020.5 |
| 20260504041619 | 12 | 302 | 0.0 | 0.0 | 0.00 | 0.00 | 0.00 | 96 | 1020.6 |
| 20260504041115 | 12 | 291 | 0.0 | 0.0 | 0.00 | 0.00 | 0.00 | 96 | 1020.7 |
| 20260504040613 | 12 | 301 | 0.0 | 0.0 | 0.00 | 0.00 | 0.00 | 95 | 1020.6 |
| 20260504040109 | 12 | 301 | 0.0 | 0.0 | 0.00 | 0.00 | 0.00 | 95 | 1020.7 |
| 20260504035606 | 12 | 301 | 0.0 | 0.0 | 0.00 | 0.00 | 0.00 | 94 | 1020.7 |
| 20260504035102 | 12 | 301 | 0.0 | 0.0 | 0.00 | 0.00 | 0.00 | 93 | 1020.7 |
| 20260504034600 | 12 | 301 | 0.0 | 0.0 | 0.00 | 0.00 | 0.00 | 93 | 1020.6 |
| 20260504034057 | 12 | 301 | 0.0 | 0.0 | 0.00 | 0.00 | 0.00 | 92 | 1020.5 |
| 20260504033555 | 12 | 285 | 0.0 | 0.0 | 0.00 | 0.00 | 0.00 | 93 | 1020.8 |
| 20260504033052 | 12 | 284 | 0.0 | 0.0 | 0.00 | 0.00 | 0.00 | 93 | 1020.6 |
| 20260504032549 | 13 | 285 | 0.0 | 0.0 | 0.00 | 0.00 | 0.00 | 93 | 1020.6 |
| 20260504032046 | 13 | 285 | 0.0 | 0.0 | 0.00 | 0.00 | 0.00 | 93 | 1020.7 |
| 20260504031543 | 13 | 285 | 0.0 | 0.0 | 0.00 | 0.00 | 0.00 | 92 | 1020.6 |
| 20260504031039 | 13 | 276 | 0.0 | 0.0 | 0.00 | 0.00 | 0.00 | 92 | 1020.4 |
| 20260504030536 | 13 | 276 | 0.0 | 0.0 | 0.00 | 0.00 | 0.00 | 92 | 1020.8 |
| 20260504030032 | 13 | 273 | 0.0 | 0.0 | 0.00 | 0.00 | 0.00 | 92 | 1020.3 |
| 20260504025530 | 13 | 270 | 0.0 | 0.0 | 0.00 | 0.00 | 0.00 | 91 | 1020.4 |
| 20260504025026 | 13 | 270 | 0.0 | 0.0 | 0.00 | 0.00 | 0.00 | 91 | 1020.5 |
| 20260504024523 | 13 | 278 | 0.0 | 0.0 | 0.00 | 0.00 | 0.00 | 91 | 1020.4 |
| 20260504024020 | 13 | 282 | 0.0 | 0.0 | 0.00 | 0.00 | 0.00 | 91 | 1020.1 |
| 20260504023517 | 13 | 282 | 0.0 | 0.0 | 0.00 | 0.00 | 0.00 | 90 | 1020.3 |
| 20260504023013 | 13 | 277 | 0.0 | 0.0 | 0.00 | 0.00 | 0.00 | 90 | 1020.3 |
| 20260504022509 | 13 | 277 | 0.0 | 0.0 | 0.00 | 0.00 | 0.00 | 90 | 1020.4 |
| 20260504022006 | 13 | 197 | 0.0 | 0.0 | 0.00 | 0.00 | 0.00 | 89 | 1020.0 |
| 20260504021503 | 14 | 197 | 0.0 | 1.6 | 0.00 | 0.00 | 0.00 | 89 | 1020.0 |
| 20260504021000 | 14 | 197 | 0.0 | 0.0 | 0.00 | 0.00 | 0.00 | 88 | 1020.1 |
| 20260504020456 | 14 | 197 | 0.0 | 0.0 | 0.00 | 0.00 | 0.00 | 87 | 1019.9 |
| 20260504015953 | 15 | 197 | 0.0 | 0.0 | 0.00 | 0.00 | 0.00 | 85 | 1020.0 |
| 20260504015449 | 15 | 197 | 0.0 | 0.0 | 0.00 | 0.00 | 0.00 | 83 | 1019.9 |
| 20260504014945 | 16 | 196 | 0.0 | 0.0 | 0.00 | 0.00 | 0.00 | 82 | 1019.8 |
| 20260504014441 | 16 | 196 | 1.6 | 1.6 | 0.00 | 0.00 | 0.00 | 80 | 1019.9 |
| 20260504013938 | 15 | 227 | 1.6 | 3.2 | 0.00 | 0.00 | 0.00 | 82 | 1019.9 |
| 20260504013437 | 14 | 234 | 0.0 | 1.6 | 0.00 | 0.00 | 0.00 | 85 | 1019.6 |
| 20260504012932 | 14 | 295 | 0.0 | 0.0 | 0.00 | 0.00 | 0.00 | 87 | 1019.5 |
| 20260504012431 | 15 | 295 | 0.0 | 0.0 | 0.00 | 0.00 | 0.00 | 87 | 1019.4 |
| 20260504011928 | 15 | 295 | 0.0 | 0.0 | 0.00 | 0.00 | 0.00 | 86 | 1019.5 |
| 20260504011425 | 15 | 295 | 0.0 | 0.0 | 0.00 | 0.00 | 0.00 | 87 | 1019.3 |
| 20260504010920 | 15 | 295 | 0.0 | 0.0 | 0.00 | 0.00 | 0.00 | 86 | 1019.4 |
| 20260504010417 | 15 | 295 | 0.0 | 0.0 | 0.00 | 0.00 | 0.00 | 83 | 1019.2 |
| 20260504005913 | 16 | 295 | 0.0 | 0.0 | 0.00 | 0.00 | 0.00 | 84 | 1019.4 |
| 20260504005410 | 16 | 295 | 0.0 | 0.0 | 0.00 | 0.00 | 0.00 | 84 | 1019.3 |
| 20260504004908 | 16 | 291 | 0.0 | 0.0 | 0.00 | 0.00 | 0.00 | 82 | 1019.1 |
| 20260504004405 | 17 | 291 | 0.0 | 0.0 | 0.00 | 0.00 | 0.00 | 81 | 1019.2 |
| 20260504003902 | 17 | 284 | 0.0 | 0.0 | 0.00 | 0.00 | 0.00 | 79 | 1019.2 |
| 20260504003358 | 17 | 282 | 0.0 | 1.6 | 0.00 | 0.00 | 0.00 | 78 | 1019.1 |
| 20260504002855 | 17 | 293 | 0.0 | 0.0 | 0.00 | 0.00 | 0.00 | 76 | 1018.9 |
| 20260504002352 | 18 | 293 | 0.0 | 0.0 | 0.00 | 0.00 | 0.00 | 73 | 1019.1 |
| 20260504001849 | 19 | 293 | 0.0 | 0.0 | 0.00 | 0.00 | 0.00 | 70 | 1018.9 |
| 20260504001347 | 19 | 293 | 0.0 | 0.0 | 0.00 | 0.00 | 0.00 | 68 | 1018.9 |
| 20260504000843 | 20 | 293 | 0.0 | 0.0 | 0.00 | 0.00 | 0.00 | 67 | 1019.0 |
| 20260504000340 | 20 | 293 | 0.0 | 0.0 | 0.00 | 0.00 | 0.00 | 64 | 1019.0 |
| 20260503235838 | 21 | 310 | 0.0 | 0.0 | 0.00 | 0.00 | 0.00 | 61 | 1019.0 |
| 20260503235335 | 22 | 315 | 0.0 | 0.0 | 0.00 | 0.00 | 0.00 | 55 | 1019.0 |
| 20260503234833 | 22 | 315 | 0.0 | 0.0 | 0.00 | 0.00 | 0.00 | 55 | 1019.0 |
| 20260503234330 | 23 | 315 | 0.0 | 0.0 | 0.00 | 0.00 | 0.00 | 52 | 1019.1 |
| 20260503233828 | 23 | 314 | 1.6 | 1.6 | 0.00 | 0.00 | 0.00 | 46 | 1018.9 |
| 20260503233323 | 23 | 324 | 0.0 | 0.0 | 0.00 | 0.00 | 0.00 | 53 | 1018.8 |
| 20260503232820 | 23 | 332 | 0.0 | 1.6 | 0.00 | 0.00 | 0.00 | 46 | 1019.0 |
| 20260503232318 | 24 | 342 | 1.6 | 3.2 | 0.00 | 0.00 | 0.00 | 45 | 1019.2 |
| 20260503231816 | 25 | 288 | 0.0 | 0.0 | 0.00 | 0.00 | 0.00 | 42 | 1019.2 |
| 20260503231312 | 24 | 311 | 1.6 | 1.6 | 0.00 | 0.00 | 0.00 | 46 | 1018.8 |
| 20260503230808 | 23 | 266 | 1.6 | 3.2 | 0.00 | 0.00 | 0.00 | 46 | 1019.1 |
| 20260503230306 | 23 | 298 | 4.8 | 8.0 | 0.00 | 0.00 | 0.00 | 43 | 1019.1 |
| 20260503225803 | 23 | 21 | 3.2 | 4.8 | 0.00 | 0.00 | 0.00 | 45 | 1019.1 |
| 20260503225258 | 24 | 311 | 1.6 | 1.6 | 0.00 | 0.00 | 0.00 | 45 | 1019.2 |
| 20260503224755 | 24 | 275 | 1.6 | 1.6 | 0.00 | 0.00 | 0.00 | 44 | 1019.3 |
| 20260503224253 | 23 | 347 | 1.6 | 3.2 | 0.00 | 0.00 | 0.00 | 43 | 1019.1 |
| 20260503223750 | 24 | 333 | 0.0 | 0.0 | 0.00 | 0.00 | 0.00 | 50 | 1019.3 |
| 20260503223248 | 25 | 317 | 3.2 | 3.2 | 0.00 | 0.00 | 0.00 | 45 | 1019.3 |
| 20260503222743 | 25 | 10 | 3.2 | 3.2 | 0.00 | 0.00 | 0.00 | 43 | 1019.2 |
| 20260503222242 | 23 | 16 | 0.0 | 1.6 | 0.00 | 0.00 | 0.00 | 43 | 1019.2 |
| 20260503221740 | 24 | 358 | 1.6 | 3.2 | 0.00 | 0.00 | 0.00 | 44 | 1019.4 |
| 20260503221237 | 23 | 6 | 1.6 | 1.6 | 0.00 | 0.00 | 0.00 | 45 | 1019.3 |
| 20260503220734 | 24 | 332 | 4.8 | 4.8 | 0.00 | 0.00 | 0.00 | 42 | 1019.5 |
| 20260503220231 | 24 | 1 | 4.8 | 8.0 | 0.00 | 0.00 | 0.00 | 42 | 1019.7 |
| 20260503215727 | 25 | 4 | 4.8 | 4.8 | 0.00 | 0.00 | 0.00 | 45 | 1019.5 |
| 20260503215224 | 25 | 337 | 6.4 | 9.7 | 0.00 | 0.00 | 0.00 | 43 | 1019.6 |
| 20260503214723 | 25 | 240 | 3.2 | 3.2 | 0.00 | 0.00 | 0.00 | 42 | 1019.5 |
| 20260503214219 | 25 | 335 | 6.4 | 9.7 | 0.00 | 0.00 | 0.00 | 42 | 1019.5 |
| 20260503213717 | 24 | 304 | 3.2 | 4.8 | 0.00 | 0.00 | 0.00 | 43 | 1019.6 |
| 20260503213214 | 24 | 309 | 4.8 | 4.8 | 0.00 | 0.00 | 0.00 | 41 | 1019.7 |
| 20260503212711 | 25 | 330 | 3.2 | 4.8 | 0.00 | 0.00 | 0.00 | 40 | 1019.7 |
| 20260503212209 | 25 | 267 | 3.2 | 4.8 | 0.00 | 0.00 | 0.00 | 42 | 1019.7 |
| 20260503211706 | 25 | 264 | 1.6 | 1.6 | 0.00 | 0.00 | 0.00 | 41 | 1019.7 |
| 20260503211202 | 24 | 299 | 3.2 | 3.2 | 0.00 | 0.00 | 0.00 | 42 | 1020.1 |
| 20260503210657 | 24 | 336 | 8.0 | 9.7 | 0.00 | 0.00 | 0.00 | 42 | 1020.0 |
| 20260503210155 | 24 | 245 | 3.2 | 3.2 | 0.00 | 0.00 | 0.00 | 43 | 1020.1 |
| 20260503205650 | 25 | 314 | 4.8 | 4.8 | 0.00 | 0.00 | 0.00 | 43 | 1020.0 |
| 20260503205146 | 24 | 265 | 1.6 | 1.6 | 0.00 | 0.00 | 0.00 | 39 | 1020.1 |
| 20260503204643 | 24 | 264 | 1.6 | 1.6 | 0.00 | 0.00 | 0.00 | 43 | 1020.3 |
| 20260503204141 | 23 | 338 | 0.0 | 1.6 | 0.00 | 0.00 | 0.00 | 43 | 1020.4 |
| 20260503203638 | 23 | 22 | 4.8 | 4.8 | 0.00 | 0.00 | 0.00 | 40 | 1020.5 |
| 20260503203136 | 24 | 352 | 4.8 | 4.8 | 0.00 | 0.00 | 0.00 | 42 | 1020.4 |
| 20260503202632 | 25 | 3 | 3.2 | 3.2 | 0.00 | 0.00 | 0.00 | 44 | 1020.6 |
| 20260503202131 | 24 | 276 | 1.6 | 3.2 | 0.00 | 0.00 | 0.00 | 41 | 1020.4 |
| 20260503201629 | 24 | 300 | 0.0 | 0.0 | 0.00 | 0.00 | 0.00 | 39 | 1020.5 |
| 20260503201126 | 24 | 311 | 1.6 | 1.6 | 0.00 | 0.00 | 0.00 | 43 | 1020.7 |
| 20260503200622 | 23 | 311 | 0.0 | 1.6 | 0.00 | 0.00 | 0.00 | 46 | 1020.9 |
| 20260503200118 | 24 | 357 | 3.2 | 4.8 | 0.00 | 0.00 | 0.00 | 42 | 1020.8 |
| 20260503195615 | 23 | 347 | 4.8 | 8.0 | 0.00 | 0.00 | 0.00 | 42 | 1020.9 |
| 20260503195112 | 23 | 351 | 6.4 | 11.3 | 0.00 | 0.00 | 0.00 | 42 | 1021.2 |
| 20260503194609 | 24 | 3 | 1.6 | 3.2 | 0.00 | 0.00 | 0.00 | 40 | 1021.1 |
| 20260503194104 | 24 | 343 | 4.8 | 8.0 | 0.00 | 0.00 | 0.00 | 40 | 1021.2 |
| 20260503193601 | 24 | 333 | 3.2 | 3.2 | 0.00 | 0.00 | 0.00 | 42 | 1021.3 |
| 20260503193056 | 24 | 285 | 3.2 | 4.8 | 0.00 | 0.00 | 0.00 | 42 | 1021.5 |
| 20260503192553 | 24 | 277 | 1.6 | 1.6 | 0.00 | 0.00 | 0.00 | 43 | 1021.4 |
| 20260503192048 | 24 | 299 | 4.8 | 4.8 | 0.00 | 0.00 | 0.00 | 44 | 1021.7 |
| 20260503191545 | 23 | 11 | 6.4 | 8.0 | 0.00 | 0.00 | 0.00 | 43 | 1021.9 |
| 20260503191042 | 23 | 282 | 1.6 | 1.6 | 0.00 | 0.00 | 0.00 | 48 | 1021.7 |
| 20260503190539 | 23 | 35 | 3.2 | 4.8 | 0.00 | 0.00 | 0.00 | 43 | 1022.0 |
| 20260503190037 | 23 | 335 | 4.8 | 4.8 | 0.00 | 0.00 | 0.00 | 42 | 1022.0 |
| 20260503185533 | 24 | 323 | 4.8 | 8.0 | 0.00 | 0.00 | 0.00 | 43 | 1022.2 |
| 20260503185032 | 23 | 270 | 1.6 | 1.6 | 0.00 | 0.00 | 0.00 | 44 | 1022.1 |
| 20260503184529 | 23 | 312 | 0.0 | 1.6 | 0.00 | 0.00 | 0.00 | 42 | 1022.1 |
| 20260503184026 | 22 | 275 | 0.0 | 0.0 | 0.00 | 0.00 | 0.00 | 42 | 1022.1 |
| 20260503183522 | 23 | 357 | 9.7 | 12.9 | 0.00 | 0.00 | 0.00 | 42 | 1022.3 |
| 20260503183019 | 23 | 206 | 6.4 | 9.7 | 0.00 | 0.00 | 0.00 | 42 | 1022.3 |
| 20260503182518 | 23 | 243 | 6.4 | 9.7 | 0.00 | 0.00 | 0.00 | 43 | 1022.3 |
| 20260503182015 | 23 | 317 | 4.8 | 4.8 | 0.00 | 0.00 | 0.00 | 39 | 1022.5 |
| 20260503181512 | 23 | 289 | 3.2 | 4.8 | 0.00 | 0.00 | 0.00 | 44 | 1022.5 |
| 20260503181008 | 23 | 344 | 1.6 | 3.2 | 0.00 | 0.00 | 0.00 | 46 | 1022.5 |
| 20260503180506 | 22 | 259 | 3.2 | 3.2 | 0.00 | 0.00 | 0.00 | 46 | 1022.5 |
| 20260503180003 | 23 | 250 | 4.8 | 4.8 | 0.00 | 0.00 | 0.00 | 43 | 1022.7 |
| 20260503175501 | 22 | 3 | 1.6 | 1.6 | 0.00 | 0.00 | 0.00 | 43 | 1022.7 |
| 20260503174957 | 23 | 167 | 4.8 | 4.8 | 0.00 | 0.00 | 0.00 | 44 | 1023.1 |
| 20260503174455 | 23 | 33 | 4.8 | 4.8 | 0.00 | 0.00 | 0.00 | 44 | 1023.3 |
| 20260503173950 | 22 | 264 | 4.8 | 8.0 | 0.00 | 0.00 | 0.00 | 45 | 1023.2 |
| 20260503173446 | 23 | 339 | 4.8 | 8.0 | 0.00 | 0.00 | 0.00 | 44 | 1023.3 |
| 20260503172943 | 23 | 358 | 3.2 | 3.2 | 0.00 | 0.00 | 0.00 | 47 | 1023.3 |
| 20260503172440 | 22 | 314 | 6.4 | 8.0 | 0.00 | 0.00 | 0.00 | 44 | 1023.3 |
| 20260503171937 | 22 | 284 | 1.6 | 1.6 | 0.00 | 0.00 | 0.00 | 46 | 1023.5 |
| 20260503171433 | 22 | 330 | 1.6 | 3.2 | 0.00 | 0.00 | 0.00 | 44 | 1023.7 |
| 20260503170931 | 22 | 311 | 3.2 | 3.2 | 0.00 | 0.00 | 0.00 | 46 | 1023.6 |
| 20260503170427 | 22 | 300 | 3.2 | 4.8 | 0.00 | 0.00 | 0.00 | 44 | 1023.6 |
| 20260503150819 | 20 | 333 | 3.2 | 3.2 | 0.00 | 0.00 | 0.00 | 55 | 1024.4 |
| 20260503150315 | 20 | 350 | 4.8 | 4.8 | 0.00 | 0.00 | 0.00 | 56 | 1024.1 |
| 20260503140240 | 17 | 339 | 0.0 | 1.6 | 0.00 | 0.00 | 0.00 | 76 | 1024.0 |
| 20260503131209 | 12 | 349 | 4.8 | 4.8 | 0.00 | 0.00 | 0.00 | 87 | 1023.5 |
| 20260503130707 | 12 | 327 | 3.2 | 3.2 | 0.00 | 0.00 | 0.00 | 94 | 1023.4 |
| 20260503130204 | 11 | 333 | 0.0 | 0.0 | 0.00 | 0.00 | 0.00 | 99 | 1023.2 |
| 20260503120130 | 7 | 314 | 0.0 | 0.0 | 0.00 | 0.00 | 0.00 | 99 | 1022.8 |
| 20260503110557 | 6 | 315 | 0.0 | 0.0 | 0.00 | 0.00 | 0.00 | 99 | 1022.0 |